Location: Valencia
(39.4670°N, 0.3670°W)
Time: 08:48:46
(UTC+02:00)

ISS - Pass Details

Date: 10 July 2017
Orbit: 400 x 408 km, 51.6° (Epoch: 21 July)

Event Time Altitude Azimuth Distance (km) Brightness Sun altitude
Exits shadow 05:07:24 22° 277° (W) 936 -2.3 -15.3°
Maximum altitude 05:08:57 36° 329° (NNW) 660 -2.7 -15.1°
Drops below altitude 10° 05:12:00 10° 38° (NE) 1,458 0.4 -14.7°
Sets 05:14:12 0° 47° (NE) 2,321 2.0 -14.4°
